International Virtual Aviation Organisation

Russian Federation and Kazakhstan MCD

 

Карточка аэропорта USTR

Внимание!
Информация на этой странице в стадии наполнения.
Если вы не увидели какой-то информации, или заметили неточность - пожалуйста сообщите нам!
Спасибо!
Команда RU-STAFF
Название аэропортаРощино
Название аэропорта (англ.)Roshschino
Превышение378 ft. (115.2 m.)
Координаты57°10.098', 65°19.002'
Высота перехода700m
Эшелон переходаFL040
Коды ответчика5101-5137
Зона ОрВДТюмень РПИ (USTV)
Данные METARUSTR 271700Z 08002MPS CAVOK M11/M13 Q1031 R12/450250 R21/450250 NOSIG RMK QFE764/1019
Проноз погоды (TAF)USTR 271355Z 2715/2815 08005MPS 4000 -SHSN BR BKN011 BKN016CB TEMPO 2715/2803 06003MPS 1000 BR BKN005 BKN016CB FM280300 05003G08MPS 9999 BKN020 TEMPO 2803/2806 SCT007 BKN015 TEMPO 2810/2815 02004MPS
NOTAMshow/hide NOTAM
AWOS   TABLE

Информация о ВПП

ВПП Длина ВПП (м.) Покрытие Курс ВПП Частота ILS
033003Асфальтобетон34108.3
213003Асфальтобетон214110.7
122704Асфальтобетон121 
302704Асфальтобетон301 

Диспетчерские позиции

Позывной Наименование органа УВД Частота
USTR_APPТюмень-Подход126.100
USTR_GNDТюмень-Руление119.000
USTR_TWRТюмень-Старт118.200



Спутниковое изображение